EW2821 Weather Reports


Display with metric or nautical units.
time (UTC)temp
F
wind
direction
speed
MPH
gust
MPH
rain 1hr
in
rain 24hr
in
rain mn
in
humidity
%
barometer
mb
20260505010053 68 187 10.0 17.0 0.00 0.00 0.00 58 1004.2
20260505004548 69 181 8.0 17.0 0.00 0.00 0.00 56 1004.1
20260505003044 69 207 10.0 20.0 0.00 0.00 0.00 54 1004.0
20260505001543 70 215 10.0 21.0 0.00 0.00 0.00 54 1004.0
20260505000053 70 206 10.0 16.0 0.00 0.00 0.00 54 1004.1
20260504234539 71 210 11.0 17.0 0.00 0.00 0.00 55 1004.2
20260504233043 70 197 9.0 15.0 0.00 0.00 0.00 58 1004.4
20260504231535 70 200 11.0 18.0 0.00 0.00 0.00 59 1004.6
20260504230034 69 187 11.0 18.0 0.00 0.00 0.00 59 1004.9
20260504224533 69 199 12.0 21.0 0.00 0.00 0.00 59 1005.1
20260504223038 70 208 11.0 20.0 0.00 0.00 0.00 59 1005.0
20260504221531 69 188 10.0 16.0 0.00 0.00 0.00 61 1005.3
20260504220040 68 189 12.0 22.0 0.00 0.00 0.00 61 1005.4
20260504214535 68 170 10.0 17.0 0.00 0.00 0.00 64 1005.5
20260504213028 66 200 9.0 19.0 0.00 0.00 0.00 69 1005.4
20260504211534 67 201 12.0 18.0 0.00 0.00 0.00 66 1005.7
20260504210026 68 215 12.0 23.0 0.00 0.00 0.00 63 1005.8
20260504204527 71 232 13.0 28.0 0.00 0.01 0.00 54 1005.8
20260504203028 71 197 6.0 14.0 0.00 0.01 0.00 54 1005.5
20260504201521 70 238 9.0 22.0 0.00 0.01 0.00 54 1005.7
20260504200018 69 234 9.0 21.0 0.00 0.01 0.00 58 1006.1
20260504194517 68 215 10.0 25.0 0.00 0.03 0.00 62 1006.6
20260504193021 68 257 14.0 26.0 0.00 0.03 0.00 60 1007.1
20260504191518 69 230 16.0 26.0 0.00 0.03 0.00 62 1007.1
20260504190013 68 227 11.0 25.0 0.00 0.03 0.00 63 1007.2
20260504184516 69 210 12.0 26.0 0.00 0.03 0.00 62 1006.9
20260504183012 70 225 17.0 26.0 0.00 0.03 0.00 60 1006.6
20260504181512 69 225 11.0 23.0 0.00 0.03 0.00 62 1006.7
20260504180006 68 259 11.0 29.0 0.00 0.03 0.00 66 1007.0
20260504174505 68 208 18.0 30.0 0.00 0.03 0.00 64 1007.0
20260504173004 68 195 13.0 23.0 0.00 0.03 0.00 62 1006.9
20260504171507 68 211 12.0 23.0 0.00 0.03 0.00 64 1007.0
20260504120154 51 199 4.0 9.0 0.00 0.03 0.00 79 1008.2
20260504081532 47 177 1.0 4.0 0.00 0.03 0.00 79 1009.3
20260504044555 50 184 5.0 10.0 0.00 0.03 0.00 73 1010.9
20260504043053 50 202 6.0 14.0 0.00 0.03 0.00 72 1010.8
20260504041550 51 200 9.0 12.0 0.00 0.03 0.00 71 1011.0
20260504040048 52 177 7.0 14.0 0.00 0.03 0.00 70 1011.2
20260504034546 52 185 7.0 14.0 0.00 0.03 0.03 69 1011.2
20260504033051 53 185 7.0 11.0 0.00 0.03 0.03 68 1011.4
20260504031544 53 206 6.0 11.0 0.00 0.03 0.03 68 1011.5
20260504030048 53 178 6.0 11.0 0.00 0.03 0.03 66 1011.5
20260504024555 54 187 7.0 10.0 0.00 0.03 0.03 65 1011.6
20260504023046 54 174 7.0 11.0 0.00 0.03 0.03 65 1011.7
20260504021550 54 195 7.0 11.0 0.00 0.03 0.03 65 1011.7
20260504020047 54 193 5.0 10.0 0.00 0.03 0.03 63 1011.9
20260504014540 54 180 5.0 10.0 0.00 0.03 0.03 62 1011.8
20260504013047 55 207 8.0 15.0 0.00 0.03 0.03 60 1011.9
20260504011541 55 196 6.0 12.0 0.00 0.03 0.03 60 1011.9